Meteo pe oră la Bolshie Polyanki

Astăzi, 18 Mai, Marţi

Timp Temperatura Precipitaţii Vânt Presiune Umiditate
00:00 +19°C° 0 mm 4 m/s 749 mmHg 74%
01:00 +18°C° 0 mm 3 m/s 749 mmHg 77%
02:00 +18°C° 0 mm 3 m/s 749 mmHg 81%
03:00 +17°C° 0 mm 2 m/s 749 mmHg 84%
04:00 +18°C° 0 mm 2 m/s 749 mmHg 81%
05:00 +19°C° 0 mm 3 m/s 750 mmHg 77%
06:00 +20°C° 0 mm 3 m/s 750 mmHg 73%
07:00 +22°C° 0 mm 3 m/s 750 mmHg 67%
08:00 +24°C° 0 mm 3 m/s 750 mmHg 61%
09:00 +26°C° 0 mm 3 m/s 750 mmHg 55%
10:00 +27°C° 0 mm 3 m/s 750 mmHg 52%
11:00 +28°C° 0 mm 3 m/s 750 mmHg 49%
12:00 +29°C° 0 mm 3 m/s 750 mmHg 46%
13:00 +29°C° 0 mm 3 m/s 750 mmHg 45%
14:00 +29°C° 0 mm 4 m/s 750 mmHg 45%
15:00 +29°C° 0 mm 4 m/s 750 mmHg 44%
16:00 +28°C° 0 mm 4 m/s 750 mmHg 49%
17:00 +27°C° 0 mm 4 m/s 750 mmHg 53%
18:00 +26°C° 0 mm 4 m/s 749 mmHg 58%
19:00 +23°C° 0 mm 4 m/s 750 mmHg 60%
20:00 +22°C° 0 mm 4 m/s 750 mmHg 62%
21:00 +20°C° 0 mm 4 m/s 750 mmHg 64%
22:00 +19°C° 0 mm 4 m/s 750 mmHg 64%
23:00 +19°C° 0 mm 4 m/s 750 mmHg 64%

Mâine, 19 Mai, Miercuri

Timp Temperatura Precipitaţii Vânt Presiune Umiditate
00:00 +18°C° 0 mm 4 m/s 750 mmHg 64%
01:00 +17°C° 0 mm 4 m/s 750 mmHg 67%
02:00 +17°C° 0 mm 4 m/s 750 mmHg 70%
03:00 +15°C° 0 mm 4 m/s 750 mmHg 72%
04:00 +17°C° 0 mm 4 m/s 750 mmHg 72%
05:00 +17°C° 0 mm 4 m/s 750 mmHg 72%
06:00 +17°C° 0 mm 5 m/s 750 mmHg 72%
07:00 +19°C° 0 mm 5 m/s 750 mmHg 66%
08:00 +21°C° 0 mm 6 m/s 750 mmHg 60%
09:00 +22°C° 0 mm 6 m/s 750 mmHg 54%
10:00 +23°C° 0 mm 6 m/s 750 mmHg 50%
11:00 +24°C° 0 mm 6 m/s 750 mmHg 47%
12:00 +26°C° 0 mm 6 m/s 750 mmHg 43%
13:00 +27°C° 0 mm 6 m/s 750 mmHg 42%
14:00 +27°C° 0 mm 6 m/s 750 mmHg 42%
15:00 +28°C° 0 mm 5 m/s 750 mmHg 41%
16:00 +27°C° 0 mm 5 m/s 750 mmHg 47%
17:00 +26°C° 0 mm 4 m/s 750 mmHg 52%
18:00 +25°C° 0 mm 4 m/s 750 mmHg 58%
19:00 +22°C° 0 mm 4 m/s 750 mmHg 62%
20:00 +21°C° 0 mm 4 m/s 750 mmHg 65%
21:00 +19°C° 0 mm 4 m/s 750 mmHg 69%
22:00 +19°C° 0 mm 4 m/s 750 mmHg 69%
23:00 +18°C° 0 mm 4 m/s 750 mmHg 69%

Poimâine, 20 Mai, Joi

Timp Temperatura Precipitaţii Vânt Presiune Umiditate
00:00 +18°C° 0 mm 4 m/s 750 mmHg 68%
01:00 +17°C° 0 mm 4 m/s 750 mmHg 69%
02:00 +17°C° 0 mm 4 m/s 750 mmHg 69%
03:00 +15°C° 0 mm 4 m/s 751 mmHg 69%
04:00 +17°C° 0 mm 4 m/s 751 mmHg 67%
05:00 +16°C° 0 mm 5 m/s 751 mmHg 66%
06:00 +17°C° 0 mm 5 m/s 751 mmHg 64%
07:00 +19°C° 0 mm 6 m/s 751 mmHg 59%
08:00 +21°C° 0 mm 6 m/s 751 mmHg 54%
09:00 +22°C° 0 mm 7 m/s 750 mmHg 48%
10:00 +23°C° 0 mm 7 m/s 750 mmHg 45%
11:00 +24°C° 0 mm 7 m/s 750 mmHg 42%
12:00 +26°C° 0 mm 7 m/s 750 mmHg 39%
13:00 +26°C° 0 mm 7 m/s 750 mmHg 39%
14:00 +26°C° 0 mm 6 m/s 750 mmHg 39%
15:00 +26°C° 0 mm 6 m/s 750 mmHg 40%
16:00 +24°C° 0 mm 6 m/s 750 mmHg 44%
17:00 +23°C° 0 mm 5 m/s 749 mmHg 48%
18:00 +22°C° 0 mm 5 m/s 749 mmHg 52%
19:00 +20°C° 0 mm 5 m/s 749 mmHg 55%
20:00 +19°C° 0 mm 4 m/s 749 mmHg 57%
21:00 +18°C° 0 mm 4 m/s 749 mmHg 60%
22:00 +17°C° 0 mm 4 m/s 749 mmHg 59%
23:00 +17°C° 0 mm 4 m/s 749 mmHg 58%

21 Mai, Vineri

Timp Temperatura Precipitaţii Vânt Presiune Umiditate
00:00 +17°C° 0 mm 4 m/s 749 mmHg 57%
01:00 +15°C° 0 mm 4 m/s 749 mmHg 59%
02:00 +14°C° 0 mm 4 m/s 748 mmHg 62%
03:00 +13°C° 0 mm 3 m/s 748 mmHg 64%
04:00 +14°C° 0 mm 4 m/s 748 mmHg 65%
05:00 +14°C° 0 mm 4 m/s 749 mmHg 66%
06:00 +15°C° 0 mm 4 m/s 749 mmHg 68%
07:00 +17°C° 0 mm 4 m/s 749 mmHg 63%
08:00 +19°C° 0 mm 4 m/s 749 mmHg 59%
09:00 +21°C° 0 mm 4 m/s 749 mmHg 55%
10:00 +22°C° 0.1 mm 4 m/s 749 mmHg 55%
11:00 +22°C° 0.1 mm 4 m/s 749 mmHg 54%
12:00 +23°C° 0.1 mm 5 m/s 749 mmHg 54%
13:00 +23°C° 0.1 mm 4 m/s 749 mmHg 54%
14:00 +23°C° 0.1 mm 4 m/s 749 mmHg 54%
15:00 +22°C° 0.1 mm 4 m/s 749 mmHg 55%
16:00 +22°C° 0 mm 3 m/s 749 mmHg 57%
17:00 +22°C° 0 mm 3 m/s 749 mmHg 60%
18:00 +21°C° 0 mm 3 m/s 749 mmHg 62%
19:00 +20°C° 0 mm 3 m/s 750 mmHg 65%
20:00 +18°C° 0 mm 3 m/s 750 mmHg 69%
21:00 +17°C° 0 mm 3 m/s 750 mmHg 73%
22:00 +17°C° 0 mm 3 m/s 750 mmHg 75%
23:00 +16°C° 0 mm 3 m/s 751 mmHg 78%

22 Mai, Sâmbătă

Timp Temperatura Precipitaţii Vânt Presiune Umiditate
00:00 +16°C° 0 mm 3 m/s 751 mmHg 80%
01:00 +14°C° 0 mm 3 m/s 751 mmHg 84%
02:00 +13°C° 0 mm 3 m/s 752 mmHg 88%
03:00 +13°C° 0 mm 3 m/s 752 mmHg 91%
04:00 +13°C° 0 mm 3 m/s 752 mmHg 85%
05:00 +14°C° 0 mm 3 m/s 753 mmHg 78%
06:00 +16°C° 0 mm 3 m/s 753 mmHg 72%
07:00 +17°C° 0 mm 3 m/s 753 mmHg 67%
08:00 +18°C° 0 mm 4 m/s 753 mmHg 63%
09:00 +19°C° 0 mm 4 m/s 754 mmHg 58%
10:00 +19°C° 0.1 mm 5 m/s 754 mmHg 60%
11:00 +19°C° 0.1 mm 6 m/s 754 mmHg 63%
12:00 +17°C° 0.1 mm 7 m/s 755 mmHg 65%
13:00 +17°C° 0.1 mm 5 m/s 755 mmHg 65%
14:00 +18°C° 0.1 mm 3 m/s 755 mmHg 65%
15:00 +18°C° 0.1 mm 2 m/s 754 mmHg 64%
16:00 +18°C° 0 mm 2 m/s 754 mmHg 67%
17:00 +17°C° 0 mm 2 m/s 754 mmHg 69%
18:00 +17°C° 0 mm 2 m/s 754 mmHg 72%
19:00 +16°C° 0 mm 2 m/s 754 mmHg 74%
20:00 +15°C° 0 mm 2 m/s 754 mmHg 77%
21:00 +14°C° 0 mm 2 m/s 753 mmHg 79%
22:00 +13°C° 0 mm 3 m/s 753 mmHg 81%
23:00 +13°C° 0 mm 3 m/s 753 mmHg 83%

23 Mai, Duminică

Timp Temperatura Precipitaţii Vânt Presiune Umiditate
00:00 +13°C° 0 mm 3 m/s 753 mmHg 84%
01:00 +12°C° 0 mm 3 m/s 753 mmHg 84%
02:00 +12°C° 0 mm 4 m/s 753 mmHg 84%
03:00 +12°C° 0 mm 4 m/s 753 mmHg 83%
04:00 +12°C° 0 mm 4 m/s 752 mmHg 82%
05:00 +13°C° 0 mm 4 m/s 752 mmHg 81%
06:00 +14°C° 0 mm 4 m/s 752 mmHg 80%
07:00 +17°C° 0 mm 3 m/s 752 mmHg 76%
08:00 +19°C° 0 mm 3 m/s 752 mmHg 72%
09:00 +20°C° 0 mm 2 m/s 752 mmHg 67%
10:00 +23°C° 0 mm 2 m/s 752 mmHg 62%
11:00 +25°C° 0 mm 2 m/s 752 mmHg 57%
12:00 +27°C° 0 mm 2 m/s 751 mmHg 52%
13:00 +27°C° 0 mm 2 m/s 751 mmHg 50%
14:00 +28°C° 0 mm 2 m/s 751 mmHg 48%
15:00 +29°C° 0 mm 2 m/s 750 mmHg 46%
16:00 +28°C° 0 mm 2 m/s 750 mmHg 51%
17:00 +27°C° 0 mm 2 m/s 750 mmHg 55%
18:00 +27°C° 0 mm 2 m/s 749 mmHg 60%
19:00 +25°C° 0 mm 2 m/s 749 mmHg 61%
20:00 +24°C° 0 mm 3 m/s 749 mmHg 62%
21:00 +22°C° 0 mm 3 m/s 749 mmHg 62%
22:00 +22°C° 0 mm 3 m/s 749 mmHg 61%
23:00 +21°C° 0 mm 4 m/s 749 mmHg 60%
Arată mai mult

Formular de consimțământ

Meteoprog și furnizorii noștri de servicii pot stoca și accesa date personale, precum cookies, identificatori de dispozitiv sau alte tehnologii similare pe dispozitivul dumneavoastră și procesa astfel de date pentru a personaliza conținutul și reclamele, dar și pentru a oferi caracteristici de social media și pentru a analiza traficul.

  • Stocarea și/sau accesarea informațiilor pe dispozitivul dumneavoastră

    Cookies, identificatori de dispozitiv sau alte informații pot fi stocate sau accesate pe dispozitiv în scopurile indicate mai sus.

  • Reclame și conținut personalizat, evaluarea reclamelor și a conținutului, informații despre audiențe și dezvoltarea produselor

    Reclamele și conținutul pot fi personalizate pe baza unui profil. Pot fi adăugate date suplimentare pentru a personaliza mai bine reclamele și conținutul. Performanța reclamelor și conținutului poate fi măsurată. Pot fi obținute informații despre utilizatorii care au văzut reclamele și conținutul. Aceste date pot fi utilizate pentru a dezvolta sau îmbunătăți experiența utilizatorilor, sistemele și software-ul.

Dând clic pe ‘Sunt de acord’, permiteți utilizarea cookie-urilor menționate, a identificatorilor de dispozitiv, balizelor web sau altor tehnologii similare. Setările pot fi modificate din browser-ul dispozitivului dumneavoastră.

În anumite scopuri, interesele legitime pot prima asupra consimțământului. Puteți citi mai multe informații în acest sens în Politica privind Confidențialitatea Datelor și Cookie.